Location: Alt?nova Orta
(36.9295°N, 30.7847°E)
Time: 09:40:02
(UTC+00:00)

STARLINK-1075 - Pass Details

Date: 17 February 2020
Orbit: 379 x 380 km, 53.0° (Epoch: 10 April)

Event Time Altitude Azimuth Distance (km) Brightness Sun altitude
Exits shadow 03:45:27 22° 274° (W) 891 4.1 -12.3°
Maximum altitude 03:46:51 34° 323° (NW) 662 3.7 -12.1°
Drops below altitude 10° 03:49:46 10° 30° (NNE) 1,410 6.0 -11.5°
Sets 03:51:56 0° 40° (NE) 2,266 7.3 -11.0°
